Home > Weather > Cranbrook > Past weeks

Flag for Canada Weather for the Past 2 Weeks in Cranbrook, British Columbia, Canada

Now
36 °F

Partly cloudy.


Feels Like: 26 °F
Forecast: 28 / 45 °F
Wind: 16 mph from South

Location: Cranbrook

Current Time: Feb 13, 2016 at 11:22:56 PM

Latest Report: Feb 13, 2016 at 11:00 PM


Visibility: 25 mi

Pressure: 30.00 "Hg (26.72 "Hg at 933m altitude)

Humidity: 75%

Dew point: 28 °F

Location of CranbrookLocation

Historic Weather in Cranbrook — Graph

°F

Cranbrook Temperature Yesterday

Maximum temperature yesterday: 41 °F (at 4:00 PM)
Minimum temperature yesterday: 32 °F (at 5:00 AM)
Average temperature yesterday: 35 °F

High & Low Weather Summary for the Past Weeks

 TemperatureHumidityPressure
High46 °F (Feb 13, 12:00 PM)100% (Jan 30, 2:00 AM)30.77 "Hg (Jan 30, 2:00 AM)
Low5 °F (Feb 3, 6:00 AM)33% (Feb 6, 9:00 AM)29.65 "Hg (Jan 29, 10:00 PM)
Average28 °F73%30.26 "Hg
* Reported Jan 29 10:00 PM — Feb 13 10:00 PM, Cranbrook, Weather by CustomWeather, © 2016

Note: Actual official high and low records may vary slightly from our data, if they occured in-between our weather recording intervals... More about our weather records

Advertising

Cranbrook Weather History for the Previous 24 Hours

 ConditionsComfort  
Time TempWeatherWind HumidityBarometerVisibility
10:00 PM
Sat, Feb 13
36 °FOvercast.17 mph75%30.02 "Hg25 mi
9:51 PM36 °FOvercast.16 mph75%30.04 "Hg25 mi
9:00 PM36 °FMostly cloudy.17 mph81%30.05 "Hg25 mi
8:00 PM36 °FPassing clouds.8 mph75%30.07 "Hg25 mi
7:00 PM37 °FMostly cloudy.13 mph70%30.09 "Hg20 mi
6:00 PM37 °FBroken clouds.13 mph75%30.09 "Hg25 mi
5:00 PM39 °FBroken clouds.14 mph65%30.09 "Hg25 mi
4:00 PM41 °FMore clouds than sun.16 mph57%30.08 "Hg25 mi
3:00 PM46 °FBroken clouds.12 mph46%30.06 "Hg25 mi
2:00 PM45 °FPartly sunny.7 mph37%30.08 "Hg25 mi
1:00 PM46 °FBroken clouds.9 mph37%30.07 "Hg25 mi
12:00 PM46 °FPartly sunny.3 mph43%30.08 "Hg25 mi
11:00 AM43 °FPartly sunny.12 mph53%30.08 "Hg25 mi
10:00 AM41 °FPartly sunny.9 mph61%30.08 "Hg25 mi
9:00 AM36 °FPartly sunny.9 mph81%30.08 "Hg25 mi
8:00 AM36 °FPassing clouds.8 mph81%30.06 "Hg25 mi
7:00 AM32 °FPartly cloudy.8 mph87%30.05 "Hg25 mi
6:00 AM34 °FPassing clouds.6 mph87%30.03 "Hg25 mi
5:00 AM36 °FPassing clouds.7 mph81%30.01 "Hg25 mi
4:00 AM37 °FPassing clouds.12 mph81%30.01 "Hg25 mi
3:00 AM37 °FPassing clouds.7 mph81%30.00 "Hg25 mi
2:00 AM36 °FPassing clouds.7 mph93%30.00 "Hg25 mi
1:49 AM37 °FPassing clouds.6 mph87%30.01 "Hg25 mi
1:00 AM36 °FLight rain. Mostly cloudy.5 mph93%30.01 "Hg15 mi
12:52 AM36 °FLight rain. Mostly cloudy.5 mph87%30.01 "Hg15 mi
12:00 AM37 °FMostly cloudy.6 mph93%30.02 "Hg25 mi
11:00 PM
Fri, Feb 12
36 °FPartly cloudy.No wind93%30.02 "Hg15 mi
Weather by CustomWeather, © 2016

See weather overviewHow to use our weather pages